Time,TemperatureF,DewpointF,PressureIn,WindDirection,WindDirectionDegrees,WindSpeedMPH,WindSpeedGustMPH,Humidity,HourlyPrecipIn,Conditions,Clouds,dailyrainin,SoftwareType,DateUTC
2013-03-28 00:00:00,27.9,16.6,29.62,WNW,293,0.0,0.0,62,0.00,,,0.00,WUHU216HW,2013-03-28 05:00:00,
2013-03-28 00:05:00,27.7,16.4,29.62,WNW,293,0.0,0.0,62,0.00,,,0.00,WUHU216HW,2013-03-28 05:05:00,
2013-03-28 00:06:00,27.7,16.4,29.62,WNW,293,0.2,0.2,62,0.00,,,0.00,WUHU216HW,2013-03-28 05:06:00,
2013-03-28 00:10:00,27.7,16.4,29.62,WNW,293,0.2,0.2,62,0.00,,,0.00,WUHU216HW,2013-03-28 05:10:00,
2013-03-28 00:15:00,27.7,16.4,29.62,WNW,293,0.2,0.2,62,0.00,,,0.00,WUHU216HW,2013-03-28 05:15:00,
2013-03-28 00:36:00,27.0,16.4,29.62,West,270,0.0,0.0,64,0.00,,,0.00,WUHU216HW,2013-03-28 05:36:00,
2013-03-28 00:41:00,26.8,16.2,29.62,West,270,0.0,0.0,64,0.00,,,0.00,WUHU216HW,2013-03-28 05:41:00,
2013-03-28 00:47:00,26.6,16.0,29.62,West,270,0.0,0.0,64,0.00,,,0.00,WUHU216HW,2013-03-28 05:47:00,
2013-03-28 00:52:00,26.6,16.4,29.62,West,270,0.0,0.0,65,0.00,,,0.00,WUHU216HW,2013-03-28 05:52:00,
2013-03-28 00:57:00,26.6,16.4,29.62,West,270,0.0,0.0,65,0.00,,,0.00,WUHU216HW,2013-03-28 05:57:00,
2013-03-28 01:02:00,26.5,16.2,29.62,West,270,0.0,0.0,65,0.00,,,0.00,WUHU216HW,2013-03-28 06:02:00,
2013-03-28 01:07:00,26.5,16.2,29.62,West,270,0.0,0.0,65,0.00,,,0.00,WUHU216HW,2013-03-28 06:07:00,
2013-03-28 01:12:00,26.3,16.0,29.62,West,270,0.0,0.0,65,0.00,,,0.00,WUHU216HW,2013-03-28 06:12:00,
2013-03-28 01:17:00,26.3,16.0,29.62,West,270,0.0,0.0,65,0.00,,,0.00,WUHU216HW,2013-03-28 06:17:00,
2013-03-28 01:22:00,26.1,16.2,29.62,West,270,0.0,0.0,66,0.00,,,0.00,WUHU216HW,2013-03-28 06:22:00,
2013-03-28 01:27:00,25.7,15.8,29.62,West,270,0.0,0.0,66,0.00,,,0.00,WUHU216HW,2013-03-28 06:27:00,
2013-03-28 01:32:00,25.6,15.7,29.62,West,270,0.0,0.0,66,0.00,,,0.00,WUHU216HW,2013-03-28 06:32:00,
2013-03-28 01:37:00,25.2,15.7,29.62,West,270,0.0,0.0,67,0.00,,,0.00,WUHU216HW,2013-03-28 06:37:00,
2013-03-28 01:42:00,25.0,15.6,29.62,West,270,0.0,0.0,67,0.00,,,0.00,WUHU216HW,2013-03-28 06:42:00,
2013-03-28 01:47:00,24.8,15.7,29.63,West,270,0.0,0.0,68,0.00,,,0.00,WUHU216HW,2013-03-28 06:47:00,
2013-03-28 01:52:00,24.5,15.4,29.63,West,270,0.0,0.0,68,0.00,,,0.00,WUHU216HW,2013-03-28 06:52:00,
2013-03-28 01:57:00,24.5,15.4,29.62,West,270,0.0,0.0,68,0.00,,,0.00,WUHU216HW,2013-03-28 06:57:00,
2013-03-28 02:02:00,24.3,15.2,29.62,West,270,0.0,0.0,68,0.00,,,0.00,WUHU216HW,2013-03-28 07:02:00,
2013-03-28 02:07:00,24.1,15.4,29.62,West,270,0.0,0.0,69,0.00,,,0.00,WUHU216HW,2013-03-28 07:07:00,
2013-03-28 02:12:00,24.1,15.4,29.62,West,270,0.0,0.0,69,0.00,,,0.00,WUHU216HW,2013-03-28 07:12:00,
2013-03-28 02:17:00,24.1,15.0,29.62,West,270,0.0,0.0,68,0.00,,,0.00,WUHU216HW,2013-03-28 07:17:00,
2013-03-28 02:22:00,24.1,15.4,29.62,West,270,0.0,0.0,69,0.00,,,0.00,WUHU216HW,2013-03-28 07:22:00,
2013-03-28 02:27:00,24.1,15.4,29.62,West,270,0.0,0.0,69,0.00,,,0.00,WUHU216HW,2013-03-28 07:27:00,
2013-03-28 02:32:00,23.9,15.2,29.62,West,270,0.0,0.0,69,0.00,,,0.00,WUHU216HW,2013-03-28 07:32:00,
2013-03-28 02:37:00,23.8,15.0,29.62,SW,225,0.0,0.0,69,0.00,,,0.00,WUHU216HW,2013-03-28 07:37:00,
2013-03-28 02:42:00,23.4,14.8,29.62,SW,225,0.0,0.0,69,0.00,,,0.00,WUHU216HW,2013-03-28 07:42:00,
2013-03-28 02:47:00,23.4,14.8,29.62,SW,225,0.0,0.0,69,0.00,,,0.00,WUHU216HW,2013-03-28 07:47:00,
2013-03-28 02:52:00,23.4,14.8,29.62,SW,225,0.0,0.0,69,0.00,,,0.00,WUHU216HW,2013-03-28 07:52:00,
2013-03-28 02:57:00,23.0,14.8,29.62,South,180,0.0,0.0,70,0.00,,,0.00,WUHU216HW,2013-03-28 07:57:00,
2013-03-28 03:02:00,22.7,14.4,29.62,SSE,158,0.0,0.2,70,0.00,,,0.00,WUHU216HW,2013-03-28 08:02:00,
2013-03-28 03:07:00,22.7,14.4,29.62,SSE,158,0.0,0.2,70,0.00,,,0.00,WUHU216HW,2013-03-28 08:07:00,
2013-03-28 03:12:00,22.5,14.5,29.61,SSE,158,0.0,0.0,71,0.00,,,0.00,WUHU216HW,2013-03-28 08:12:00,
2013-03-28 03:17:00,22.3,14.3,29.61,SSE,158,0.0,0.0,71,0.00,,,0.00,WUHU216HW,2013-03-28 08:17:00,
2013-03-28 03:22:00,22.3,14.3,29.62,SSE,158,0.0,0.0,71,0.00,,,0.00,WUHU216HW,2013-03-28 08:22:00,
2013-03-28 03:27:00,22.1,14.1,29.62,SSE,158,0.0,0.0,71,0.00,,,0.00,WUHU216HW,2013-03-28 08:27:00,
2013-03-28 03:32:00,22.0,14.3,29.62,SSE,158,0.0,0.0,72,0.00,,,0.00,WUHU216HW,2013-03-28 08:32:00,
2013-03-28 03:38:00,21.8,14.1,29.62,SSE,158,0.0,0.0,72,0.00,,,0.00,WUHU216HW,2013-03-28 08:38:00,
2013-03-28 03:43:00,21.4,13.8,29.61,SSE,158,0.0,0.0,72,0.00,,,0.00,WUHU216HW,2013-03-28 08:43:00,
2013-03-28 03:47:00,21.4,13.8,29.61,SSE,158,0.0,0.0,72,0.00,,,0.00,WUHU216HW,2013-03-28 08:47:00,
2013-03-28 03:53:00,21.4,14.0,29.61,SSE,158,0.0,0.0,73,0.00,,,0.00,WUHU216HW,2013-03-28 08:53:00,
2013-03-28 03:58:00,21.6,14.2,29.61,SSE,158,0.0,0.0,73,0.00,,,0.00,WUHU216HW,2013-03-28 08:58:00,
2013-03-28 04:02:00,21.4,14.0,29.61,SSE,158,0.0,0.0,73,0.00,,,0.00,WUHU216HW,2013-03-28 09:02:00,
2013-03-28 04:07:00,21.4,14.0,29.61,SSE,158,0.0,0.0,73,0.00,,,0.00,WUHU216HW,2013-03-28 09:07:00,
2013-03-28 04:12:00,21.2,13.9,29.61,SSE,158,0.0,0.0,73,0.00,,,0.00,WUHU216HW,2013-03-28 09:12:00,
2013-03-28 04:17:00,21.2,13.9,29.61,SSE,158,0.0,0.0,73,0.00,,,0.00,WUHU216HW,2013-03-28 09:17:00,
2013-03-28 04:22:00,21.1,13.7,29.61,SSE,158,0.0,0.0,73,0.00,,,0.00,WUHU216HW,2013-03-28 09:22:00,
2013-03-28 04:28:00,20.9,13.5,29.61,SSE,158,0.0,0.0,73,0.00,,,0.00,WUHU216HW,2013-03-28 09:28:00,
2013-03-28 04:32:00,20.9,13.5,29.61,SSE,158,0.0,0.0,73,0.00,,,0.00,WUHU216HW,2013-03-28 09:32:00,
2013-03-28 04:37:00,20.7,13.7,29.61,SSE,158,0.0,0.0,74,0.00,,,0.00,WUHU216HW,2013-03-28 09:37:00,
2013-03-28 04:43:00,20.7,13.7,29.61,SSE,158,0.0,0.0,74,0.00,,,0.00,WUHU216HW,2013-03-28 09:43:00,
2013-03-28 04:47:00,20.7,13.7,29.61,SSE,158,0.0,0.0,74,0.00,,,0.00,WUHU216HW,2013-03-28 09:47:00,
2013-03-28 04:52:00,20.7,13.7,29.61,SSE,158,0.0,0.0,74,0.00,,,0.00,WUHU216HW,2013-03-28 09:52:00,
2013-03-28 04:57:00,20.7,13.7,29.61,SSE,158,0.0,0.0,74,0.00,,,0.00,WUHU216HW,2013-03-28 09:57:00,
2013-03-28 05:02:00,20.5,13.5,29.61,SSE,158,0.0,0.0,74,0.00,,,0.00,WUHU216HW,2013-03-28 10:02:00,
2013-03-28 05:07:00,20.3,13.3,29.61,SSE,158,0.0,0.0,74,0.00,,,0.00,WUHU216HW,2013-03-28 10:07:00,
2013-03-28 05:12:00,20.5,13.5,29.61,SSE,158,0.0,0.0,74,0.00,,,0.00,WUHU216HW,2013-03-28 10:12:00,
2013-03-28 05:18:00,20.3,13.3,29.61,SSE,158,0.0,0.0,74,0.00,,,0.00,WUHU216HW,2013-03-28 10:18:00,
2013-03-28 05:22:00,20.3,13.3,29.61,SSE,158,0.0,0.0,74,0.00,,,0.00,WUHU216HW,2013-03-28 10:22:00,
2013-03-28 05:28:00,20.3,13.3,29.61,SSE,158,0.0,0.0,74,0.00,,,0.00,WUHU216HW,2013-03-28 10:28:00,
2013-03-28 05:33:00,20.5,13.5,29.61,SSE,158,0.0,0.0,74,0.00,,,0.00,WUHU216HW,2013-03-28 10:33:00,
2013-03-28 05:38:00,20.5,13.8,29.61,SSE,158,0.0,0.0,75,0.00,,,0.00,WUHU216HW,2013-03-28 10:38:00,
2013-03-28 05:43:00,20.3,13.6,29.62,SSE,158,0.2,0.2,75,0.00,,,0.00,WUHU216HW,2013-03-28 10:43:00,
2013-03-28 05:48:00,20.0,13.0,29.61,SE,135,0.4,0.4,74,0.00,,,0.00,WUHU216HW,2013-03-28 10:48:00,
2013-03-28 05:53:00,19.6,12.6,29.61,East,90,0.2,0.4,74,0.00,,,0.00,WUHU216HW,2013-03-28 10:53:00,
2013-03-28 05:58:00,19.1,12.3,29.61,ESE,113,0.2,0.4,75,0.00,,,0.00,WUHU216HW,2013-03-28 10:58:00,
2013-03-28 06:03:00,18.9,12.5,29.62,ESE,113,0.0,0.4,76,0.00,,,0.00,WUHU216HW,2013-03-28 11:03:00,
2013-03-28 06:08:00,19.1,12.7,29.62,East,90,0.2,0.4,76,0.00,,,0.00,WUHU216HW,2013-03-28 11:08:00,
2013-03-28 06:13:00,18.9,12.8,29.61,East,90,0.0,0.4,77,0.00,,,0.00,WUHU216HW,2013-03-28 11:13:00,
2013-03-28 06:18:00,18.7,12.3,29.61,East,90,0.2,0.4,76,0.00,,,0.00,WUHU216HW,2013-03-28 11:18:00,
2013-03-28 06:23:00,18.5,12.2,29.62,East,90,0.0,0.2,76,0.00,,,0.00,WUHU216HW,2013-03-28 11:23:00,
2013-03-28 06:28:00,18.5,12.2,29.61,East,90,0.2,0.2,76,0.00,,,0.00,WUHU216HW,2013-03-28 11:28:00,
2013-03-28 06:33:00,18.4,12.2,29.61,East,90,0.2,0.4,77,0.00,,,0.00,WUHU216HW,2013-03-28 11:33:00,
2013-03-28 06:38:00,18.2,12.1,29.61,ESE,113,0.4,0.4,77,0.00,,,0.00,WUHU216HW,2013-03-28 11:38:00,
2013-03-28 06:43:00,18.2,12.1,29.61,East,90,0.4,0.7,77,0.00,,,0.00,WUHU216HW,2013-03-28 11:43:00,
2013-03-28 06:48:00,17.8,12.1,29.61,East,90,0.7,0.7,78,0.00,,,0.00,WUHU216HW,2013-03-28 11:48:00,
2013-03-28 06:53:00,17.5,12.0,29.61,East,90,0.4,0.7,79,0.00,,,0.00,WUHU216HW,2013-03-28 11:53:00,
2013-03-28 06:58:00,17.3,11.8,29.61,East,90,0.4,0.7,79,0.00,,,0.00,WUHU216HW,2013-03-28 11:58:00,
2013-03-28 07:03:00,17.3,11.8,29.62,ENE,68,0.4,0.7,79,0.00,,,0.00,WUHU216HW,2013-03-28 12:03:00,
2013-03-28 07:08:00,17.6,12.2,29.62,East,90,0.0,0.4,79,0.00,,,0.00,WUHU216HW,2013-03-28 12:08:00,
2013-03-28 07:13:00,18.4,12.9,29.62,SE,135,0.4,0.4,79,0.00,,,0.00,WUHU216HW,2013-03-28 12:13:00,
2013-03-28 07:18:00,18.5,13.3,29.62,East,90,0.7,0.9,80,0.00,,,0.00,WUHU216HW,2013-03-28 12:18:00,
2013-03-28 07:23:00,18.2,12.7,29.62,ESE,113,0.4,0.9,79,0.00,,,0.00,WUHU216HW,2013-03-28 12:23:00,
2013-03-28 07:28:00,18.4,12.9,29.62,ESE,113,0.2,0.7,79,0.00,,,0.00,WUHU216HW,2013-03-28 12:28:00,
2013-03-28 07:33:00,19.8,14.3,29.62,East,90,0.4,0.4,79,0.00,,,0.00,WUHU216HW,2013-03-28 12:33:00,
2013-03-28 07:38:00,21.2,15.8,29.62,East,90,0.2,0.4,79,0.00,,,0.00,WUHU216HW,2013-03-28 12:38:00,
2013-03-28 07:43:00,23.0,17.2,29.62,East,90,0.2,0.4,78,0.00,,,0.00,WUHU216HW,2013-03-28 12:43:00,
2013-03-28 07:48:00,25.0,19.2,29.62,SE,135,0.2,0.2,78,0.00,,,0.00,WUHU216HW,2013-03-28 12:48:00,
2013-03-28 07:53:00,27.7,21.1,29.62,ESE,113,0.4,0.4,76,0.00,,,0.00,WUHU216HW,2013-03-28 12:53:00,
2013-03-28 07:58:00,29.2,21.6,29.62,East,90,0.2,0.4,73,0.00,,,0.00,WUHU216HW,2013-03-28 12:58:00,
2013-03-28 08:03:00,29.9,21.6,29.62,ENE,68,0.0,0.4,71,0.00,,,0.00,WUHU216HW,2013-03-28 13:03:00,
2013-03-28 08:08:00,30.4,21.8,29.62,ESE,113,0.0,0.4,70,0.00,,,0.00,WUHU216HW,2013-03-28 13:08:00,
2013-03-28 08:13:00,29.7,20.4,29.62,ESE,113,0.0,0.4,68,0.00,,,0.00,WUHU216HW,2013-03-28 13:13:00,
2013-03-28 08:18:00,28.8,19.3,29.62,East,90,0.4,0.4,67,0.00,,,0.00,WUHU216HW,2013-03-28 13:18:00,
2013-03-28 08:23:00,28.1,18.5,29.62,ESE,113,0.4,0.4,67,0.00,,,0.00,WUHU216HW,2013-03-28 13:23:00,
2013-03-28 08:28:00,27.7,18.5,29.62,ESE,113,0.4,0.4,68,0.00,,,0.00,WUHU216HW,2013-03-28 13:28:00,
2013-03-28 08:33:00,27.9,19.1,29.62,ESE,113,0.7,0.7,69,0.00,,,0.00,WUHU216HW,2013-03-28 13:33:00,
2013-03-28 08:38:00,28.3,19.4,29.62,ESE,113,0.4,0.9,69,0.00,,,0.00,WUHU216HW,2013-03-28 13:38:00,
2013-03-28 08:43:00,28.8,20.0,29.62,SE,135,1.1,1.3,69,0.00,,,0.00,WUHU216HW,2013-03-28 13:43:00,
2013-03-28 08:48:00,29.2,19.9,29.62,SE,135,2.5,2.5,68,0.00,,,0.00,WUHU216HW,2013-03-28 13:48:00,
2013-03-28 08:53:00,29.5,19.9,29.62,SE,135,1.8,2.5,67,0.00,,,0.00,WUHU216HW,2013-03-28 13:53:00,
2013-03-28 08:58:00,29.9,20.2,29.62,ESE,113,2.5,3.1,67,0.00,,,0.00,WUHU216HW,2013-03-28 13:58:00,
2013-03-28 09:03:00,29.9,19.8,29.62,ESE,113,1.8,3.1,66,0.00,,,0.00,WUHU216HW,2013-03-28 14:03:00,
2013-03-28 09:08:00,29.9,19.8,29.63,East,90,1.3,1.8,66,0.00,,,0.00,WUHU216HW,2013-03-28 14:08:00,
2013-03-28 09:13:00,29.9,19.8,29.63,ESE,113,1.8,2.0,66,0.00,,,0.00,WUHU216HW,2013-03-28 14:13:00,
2013-03-28 09:18:00,30.4,20.3,29.63,SE,135,1.6,2.0,66,0.00,,,0.00,WUHU216HW,2013-03-28 14:18:00,
2013-03-28 09:23:00,31.1,21.1,29.63,SE,135,2.0,2.0,66,0.00,,,0.00,WUHU216HW,2013-03-28 14:23:00,
2013-03-28 09:28:00,32.0,21.6,29.63,East,90,1.1,2.0,65,0.00,,,0.00,WUHU216HW,2013-03-28 14:28:00,
2013-03-28 09:33:00,32.2,21.8,29.63,ESE,113,0.4,1.6,65,0.00,,,0.00,WUHU216HW,2013-03-28 14:33:00,
2013-03-28 09:38:00,32.8,21.9,29.63,ESE,113,2.0,2.0,64,0.00,,,0.00,WUHU216HW,2013-03-28 14:38:00,
2013-03-28 09:43:00,33.3,22.1,29.63,ESE,113,1.6,2.0,63,0.00,,,0.00,WUHU216HW,2013-03-28 14:43:00,
2013-03-28 09:48:00,33.8,22.1,29.63,ESE,113,1.6,2.5,62,0.00,,,0.00,WUHU216HW,2013-03-28 14:48:00,
2013-03-28 09:53:00,34.6,22.9,29.63,SE,135,2.2,2.5,62,0.00,,,0.00,WUHU216HW,2013-03-28 14:53:00,
2013-03-28 09:58:00,35.1,23.0,29.63,East,90,0.9,2.2,61,0.00,,,0.00,WUHU216HW,2013-03-28 14:58:00,
2013-03-28 10:03:00,35.6,23.2,29.63,SE,135,3.6,3.6,60,0.00,,,0.00,WUHU216HW,2013-03-28 15:03:00,
2013-03-28 10:08:00,36.0,23.1,29.63,SE,135,2.5,3.6,59,0.00,,,0.00,WUHU216HW,2013-03-28 15:08:00,
2013-03-28 10:13:00,36.2,22.9,29.63,SE,135,4.0,4.0,58,0.00,,,0.00,WUHU216HW,2013-03-28 15:13:00,
2013-03-28 10:18:00,36.4,23.1,29.62,East,90,2.9,4.3,58,0.00,,,0.00,WUHU216HW,2013-03-28 15:18:00,
2013-03-28 10:23:00,36.4,22.6,29.63,ESE,113,2.7,4.3,57,0.00,,,0.00,WUHU216HW,2013-03-28 15:23:00,
2013-03-28 10:28:00,36.7,23.3,29.62,ENE,68,2.0,3.4,58,0.00,,,0.00,WUHU216HW,2013-03-28 15:28:00,
2013-03-28 10:33:00,37.3,23.9,29.63,ENE,68,2.2,3.4,58,0.00,,,0.00,WUHU216HW,2013-03-28 15:33:00,
2013-03-28 10:38:00,37.4,23.1,29.62,East,90,2.7,3.1,56,0.00,,,0.00,WUHU216HW,2013-03-28 15:38:00,
2013-03-28 10:43:00,37.8,23.4,29.62,East,90,2.0,3.4,56,0.00,,,0.00,WUHU216HW,2013-03-28 15:43:00,
2013-03-28 10:48:00,38.0,22.8,29.62,East,90,2.5,3.4,54,0.00,,,0.00,WUHU216HW,2013-03-28 15:48:00,
2013-03-28 10:53:00,38.5,23.2,29.62,ESE,113,2.2,3.8,54,0.00,,,0.00,WUHU216HW,2013-03-28 15:53:00,
2013-03-28 10:58:00,39.1,23.7,29.62,ESE,113,2.2,3.8,54,0.00,,,0.00,WUHU216HW,2013-03-28 15:58:00,
2013-03-28 11:03:00,39.2,23.9,29.62,SSE,158,1.3,2.9,54,0.00,,,0.00,WUHU216HW,2013-03-28 16:03:00,
2013-03-28 11:08:00,40.0,23.2,29.62,ESE,113,4.0,4.0,51,0.00,,,0.00,WUHU216HW,2013-03-28 16:08:00,
2013-03-28 11:13:00,40.1,23.9,29.62,NE,45,1.1,4.0,52,0.00,,,0.00,WUHU216HW,2013-03-28 16:13:00,
2013-03-28 11:18:00,40.7,23.9,29.62,ESE,113,2.0,4.7,51,0.00,,,0.00,WUHU216HW,2013-03-28 16:18:00,
2013-03-28 11:23:00,41.2,25.3,29.62,South,180,6.7,6.7,53,0.00,,,0.00,WUHU216HW,2013-03-28 16:23:00,
2013-03-28 11:28:00,41.8,25.4,29.62,SSE,158,4.5,7.8,52,0.00,,,0.00,WUHU216HW,2013-03-28 16:28:00,
2013-03-28 11:33:00,42.1,24.3,29.62,ESE,113,3.8,7.8,49,0.00,,,0.00,WUHU216HW,2013-03-28 16:33:00,
2013-03-28 11:38:00,42.1,24.8,29.62,SSE,158,2.9,5.1,50,0.00,,,0.00,WUHU216HW,2013-03-28 16:38:00,
2013-03-28 11:43:00,42.5,24.7,29.62,SSE,158,4.9,7.6,49,0.00,,,0.00,WUHU216HW,2013-03-28 16:43:00,
2013-03-28 11:48:00,42.1,23.8,29.62,SE,135,3.8,7.6,48,0.00,,,0.00,WUHU216HW,2013-03-28 16:48:00,
2013-03-28 11:53:00,41.9,24.1,29.62,NE,45,0.4,5.4,49,0.00,,,0.00,WUHU216HW,2013-03-28 16:53:00,
2013-03-28 11:58:00,42.5,25.2,29.62,SE,135,3.4,5.4,50,0.00,,,0.00,WUHU216HW,2013-03-28 16:58:00,
2013-03-28 12:03:00,43.0,24.7,29.62,SE,135,7.2,7.2,48,0.00,,,0.00,WUHU216HW,2013-03-28 17:03:00,
2013-03-28 12:08:00,43.0,25.2,29.62,South,180,4.9,8.1,49,0.00,,,0.00,WUHU216HW,2013-03-28 17:08:00,
2013-03-28 12:13:00,43.6,25.1,29.62,SE,135,2.2,8.1,48,0.00,,,0.00,WUHU216HW,2013-03-28 17:13:00,
2013-03-28 12:18:00,43.7,24.8,29.62,East,90,3.6,6.3,47,0.00,,,0.00,WUHU216HW,2013-03-28 17:18:00,
2013-03-28 12:23:00,43.2,24.3,29.62,SE,135,5.1,6.9,47,0.00,,,0.00,WUHU216HW,2013-03-28 17:23:00,
2013-03-28 12:28:00,43.6,25.1,29.62,ESE,113,2.0,6.9,48,0.00,,,0.00,WUHU216HW,2013-03-28 17:28:00,
2013-03-28 12:33:00,43.9,25.5,29.62,SSE,158,2.5,5.4,48,0.00,,,0.00,WUHU216HW,2013-03-28 17:33:00,
2013-03-28 12:38:00,44.5,25.4,29.62,SSE,158,4.0,7.4,47,0.00,,,0.00,WUHU216HW,2013-03-28 17:38:00,
2013-03-28 12:43:00,44.5,24.8,29.61,ESE,113,5.4,7.4,46,0.00,,,0.00,WUHU216HW,2013-03-28 17:43:00,
2013-03-28 12:48:00,43.7,24.2,29.61,SE,135,5.1,8.1,46,0.00,,,0.00,WUHU216HW,2013-03-28 17:48:00,
2013-03-28 12:53:00,43.7,24.8,29.61,ESE,113,0.9,8.1,47,0.00,,,0.00,WUHU216HW,2013-03-28 17:53:00,
2013-03-28 12:58:00,44.3,25.2,29.61,SE,135,5.4,5.8,47,0.00,,,0.00,WUHU216HW,2013-03-28 17:58:00,
2013-03-28 13:03:00,44.1,24.6,29.61,SE,135,5.4,5.8,46,0.00,,,0.00,WUHU216HW,2013-03-28 18:03:00,
2013-03-28 13:08:00,43.9,24.4,29.61,SE,135,2.9,5.4,46,0.00,,,0.00,WUHU216HW,2013-03-28 18:08:00,
2013-03-28 13:13:00,43.9,24.4,29.61,NNW,338,1.6,4.0,46,0.00,,,0.00,WUHU216HW,2013-03-28 18:13:00,
2013-03-28 13:18:00,44.3,24.7,29.61,NNE,23,1.1,4.0,46,0.00,,,0.00,WUHU216HW,2013-03-28 18:18:00,
2013-03-28 13:23:00,44.6,24.5,29.61,SSE,158,3.8,3.8,45,0.00,,,0.00,WUHU216HW,2013-03-28 18:23:00,
2013-03-28 13:28:00,45.0,25.9,29.60,East,90,2.2,4.9,47,0.00,,,0.00,WUHU216HW,2013-03-28 18:28:00,
2013-03-28 13:33:00,45.2,25.5,29.60,SSE,158,3.6,4.9,46,0.00,,,0.00,WUHU216HW,2013-03-28 18:33:00,
2013-03-28 13:38:00,45.4,25.1,29.60,NNW,338,1.8,4.5,45,0.00,,,0.00,WUHU216HW,2013-03-28 18:38:00,
2013-03-28 13:43:00,45.4,25.7,29.60,SSE,158,3.4,4.5,46,0.00,,,0.00,WUHU216HW,2013-03-28 18:43:00,
2013-03-28 13:48:00,45.5,26.4,29.60,SE,135,4.7,5.4,47,0.00,,,0.00,WUHU216HW,2013-03-28 18:48:00,
2013-03-28 13:53:00,45.9,26.2,29.60,SSE,158,4.9,5.4,46,0.00,,,0.00,WUHU216HW,2013-03-28 18:53:00,
2013-03-28 13:58:00,46.3,25.9,29.60,SE,135,1.8,6.9,45,0.00,,,0.00,WUHU216HW,2013-03-28 18:58:00,
2013-03-28 14:03:00,46.1,26.3,29.59,South,180,2.2,6.9,46,0.00,,,0.00,WUHU216HW,2013-03-28 19:03:00,
2013-03-28 14:08:00,46.1,25.7,29.59,ESE,113,0.7,6.5,45,0.00,,,0.00,WUHU216HW,2013-03-28 19:08:00,
2013-03-28 14:13:00,45.9,25.7,29.59,ESE,113,2.7,8.1,45,0.00,,,0.00,WUHU216HW,2013-03-28 19:13:00,
2013-03-28 14:18:00,45.7,24.9,29.59,SE,135,2.5,8.1,44,0.00,,,0.00,WUHU216HW,2013-03-28 19:18:00,
2013-03-28 14:23:00,45.7,25.5,29.59,WSW,248,3.1,4.9,45,0.00,,,0.00,WUHU216HW,2013-03-28 19:23:00,
2013-03-28 14:28:00,45.7,25.5,29.59,SE,135,5.4,5.4,45,0.00,,,0.00,WUHU216HW,2013-03-28 19:28:00,
2013-03-28 14:33:00,45.7,25.5,29.58,SSE,158,4.7,5.4,45,0.00,,,0.00,WUHU216HW,2013-03-28 19:33:00,
2013-03-28 14:38:00,46.1,25.7,29.58,SE,135,1.1,5.4,45,0.00,,,0.00,WUHU216HW,2013-03-28 19:38:00,
2013-03-28 14:43:00,46.1,25.7,29.58,SSE,158,4.5,5.4,45,0.00,,,0.00,WUHU216HW,2013-03-28 19:43:00,
2013-03-28 14:48:00,46.3,25.4,29.58,SSE,158,5.8,8.5,44,0.00,,,0.00,WUHU216HW,2013-03-28 19:48:00,
2013-03-28 14:53:00,46.3,25.4,29.58,SSE,158,4.9,8.5,44,0.00,,,0.00,WUHU216HW,2013-03-28 19:53:00,
2013-03-28 14:58:00,45.7,24.4,29.58,ESE,113,0.2,6.5,43,0.00,,,0.00,WUHU216HW,2013-03-28 19:58:00,
2013-03-28 15:03:00,45.7,24.9,29.58,SSE,158,1.8,5.4,44,0.00,,,0.00,WUHU216HW,2013-03-28 20:03:00,
2013-03-28 15:08:00,45.9,25.7,29.58,SE,135,4.0,7.6,45,0.00,,,0.00,WUHU216HW,2013-03-28 20:08:00,
2013-03-28 15:13:00,45.9,25.7,29.58,SSE,158,4.3,7.6,45,0.00,,,0.00,WUHU216HW,2013-03-28 20:13:00,
2013-03-28 15:18:00,46.1,25.2,29.57,South,180,1.6,6.0,44,0.00,,,0.00,WUHU216HW,2013-03-28 20:18:00,
2013-03-28 15:23:00,46.3,25.9,29.57,NW,315,0.0,5.4,45,0.00,,,0.00,WUHU216HW,2013-03-28 20:23:00,
2013-03-28 15:28:00,46.6,26.3,29.57,SE,135,2.2,4.7,45,0.00,,,0.00,WUHU216HW,2013-03-28 20:28:00,
2013-03-28 15:33:00,46.8,25.9,29.57,South,180,3.8,4.7,44,0.00,,,0.00,WUHU216HW,2013-03-28 20:33:00,
2013-03-28 15:37:00,46.6,25.8,29.57,SSE,158,4.0,5.8,44,0.00,,,0.00,WUHU216HW,2013-03-28 20:37:00,
2013-03-28 15:49:00,46.6,25.8,29.57,ESE,113,1.3,3.1,44,0.00,,,0.00,WUHU216HW,2013-03-28 20:49:00,
2013-03-28 15:54:00,46.8,25.4,29.57,SE,135,5.1,5.1,43,0.00,,,0.00,WUHU216HW,2013-03-28 20:54:00,
2013-03-28 15:59:00,46.6,25.8,29.57,ESE,113,3.8,5.1,44,0.00,,,0.00,WUHU216HW,2013-03-28 20:59:00,
2013-03-28 16:04:00,46.4,24.5,29.57,South,180,6.7,6.7,42,0.00,,,0.00,WUHU216HW,2013-03-28 21:04:00,
2013-03-28 16:09:00,46.1,24.7,29.57,WNW,293,0.9,6.7,43,0.00,,,0.00,WUHU216HW,2013-03-28 21:09:00,
2013-03-28 16:14:00,46.4,25.0,29.57,SSE,158,1.8,4.7,43,0.00,,,0.00,WUHU216HW,2013-03-28 21:14:00,
2013-03-28 16:19:00,46.4,24.5,29.56,SSE,158,3.1,5.8,42,0.00,,,0.00,WUHU216HW,2013-03-28 21:19:00,
2013-03-28 16:24:00,46.1,24.1,29.57,WNW,293,1.1,5.8,42,0.00,,,0.00,WUHU216HW,2013-03-28 21:24:00,
2013-03-28 16:29:00,46.3,24.8,29.56,SE,135,2.9,4.7,43,0.00,,,0.00,WUHU216HW,2013-03-28 21:29:00,
2013-03-28 16:34:00,46.1,24.7,29.56,SSE,158,8.3,8.3,43,0.00,,,0.00,WUHU216HW,2013-03-28 21:34:00,
2013-03-28 16:39:00,46.1,24.1,29.57,ESE,113,5.6,8.3,42,0.00,,,0.00,WUHU216HW,2013-03-28 21:39:00,
2013-03-28 16:44:00,45.7,23.9,29.56,ESE,113,0.9,6.3,42,0.00,,,0.00,WUHU216HW,2013-03-28 21:44:00,
2013-03-28 16:49:00,45.9,24.6,29.56,ENE,68,0.9,6.3,43,0.00,,,0.00,WUHU216HW,2013-03-28 21:49:00,
2013-03-28 16:54:00,46.1,24.7,29.56,SSE,158,3.1,3.1,43,0.00,,,0.00,WUHU216HW,2013-03-28 21:54:00,
2013-03-28 16:59:00,45.9,24.0,29.56,ESE,113,2.9,5.6,42,0.00,,,0.00,WUHU216HW,2013-03-28 21:59:00,
2013-03-28 17:04:00,45.7,23.9,29.56,SSE,158,1.8,5.6,42,0.00,,,0.00,WUHU216HW,2013-03-28 22:04:00,
2013-03-28 17:09:00,46.1,24.1,29.56,NNE,23,1.1,3.6,42,0.00,,,0.00,WUHU216HW,2013-03-28 22:09:00,
2013-03-28 17:14:00,46.1,23.6,29.56,SE,135,0.2,4.9,41,0.00,,,0.00,WUHU216HW,2013-03-28 22:14:00,
2013-03-28 17:19:00,46.1,24.1,29.56,SSE,158,0.9,4.9,42,0.00,,,0.00,WUHU216HW,2013-03-28 22:19:00,
2013-03-28 17:24:00,46.1,24.1,29.56,NE,45,0.2,5.1,42,0.00,,,0.00,WUHU216HW,2013-03-28 22:24:00,
2013-03-28 17:29:00,46.1,24.1,29.56,SE,135,2.9,5.1,42,0.00,,,0.00,WUHU216HW,2013-03-28 22:29:00,
2013-03-28 17:34:00,46.3,23.8,29.56,SSE,158,3.6,6.0,41,0.00,,,0.00,WUHU216HW,2013-03-28 22:34:00,
2013-03-28 17:39:00,46.3,24.3,29.56,SSE,158,2.0,6.0,42,0.00,,,0.00,WUHU216HW,2013-03-28 22:39:00,
2013-03-28 17:44:00,46.3,24.3,29.56,South,180,3.4,5.4,42,0.00,,,0.00,WUHU216HW,2013-03-28 22:44:00,
2013-03-28 17:49:00,46.1,24.1,29.56,SSE,158,2.0,5.4,42,0.00,,,0.00,WUHU216HW,2013-03-28 22:49:00,
2013-03-28 17:54:00,45.9,24.0,29.56,SSE,158,3.4,6.3,42,0.00,,,0.00,WUHU216HW,2013-03-28 22:54:00,
2013-03-28 17:59:00,45.7,23.9,29.56,SE,135,2.2,6.3,42,0.00,,,0.00,WUHU216HW,2013-03-28 22:59:00,
2013-03-28 18:04:00,45.9,24.6,29.56,East,90,2.9,4.0,43,0.00,,,0.00,WUHU216HW,2013-03-28 23:04:00,
2013-03-28 18:09:00,45.7,24.4,29.56,SE,135,3.6,4.7,43,0.00,,,0.00,WUHU216HW,2013-03-28 23:09:00,
2013-03-28 18:14:00,45.7,24.4,29.56,ESE,113,1.8,4.7,43,0.00,,,0.00,WUHU216HW,2013-03-28 23:14:00,
2013-03-28 18:19:00,45.5,24.2,29.56,SE,135,1.8,5.1,43,0.00,,,0.00,WUHU216HW,2013-03-28 23:19:00,
2013-03-28 18:24:00,45.4,24.0,29.56,SSE,158,2.9,5.1,43,0.00,,,0.00,WUHU216HW,2013-03-28 23:24:00,
2013-03-28 18:29:00,45.2,23.9,29.55,SSE,158,3.4,3.6,43,0.00,,,0.00,WUHU216HW,2013-03-28 23:29:00,
2013-03-28 18:34:00,45.0,23.8,29.56,SE,135,1.1,3.6,43,0.00,,,0.00,WUHU216HW,2013-03-28 23:34:00,
2013-03-28 18:39:00,44.8,23.6,29.56,SSE,158,2.0,3.4,43,0.00,,,0.00,WUHU216HW,2013-03-28 23:39:00,
2013-03-28 18:44:00,44.8,24.1,29.56,South,180,1.1,2.2,44,0.00,,,0.00,WUHU216HW,2013-03-28 23:44:00,
2013-03-28 18:49:00,44.5,23.8,29.56,SE,135,2.0,2.9,44,0.00,,,0.00,WUHU216HW,2013-03-28 23:49:00,
2013-03-28 18:54:00,44.3,23.6,29.56,SSE,158,1.1,2.9,44,0.00,,,0.00,WUHU216HW,2013-03-28 23:54:00,
2013-03-28 18:59:00,44.1,23.5,29.56,SE,135,0.2,2.7,44,0.00,,,0.00,WUHU216HW,2013-03-28 23:59:00,
2013-03-28 19:04:00,43.7,23.1,29.56,SSE,158,1.1,2.0,44,0.00,,,0.00,WUHU216HW,2013-03-29 00:04:00,
2013-03-28 19:09:00,43.6,23.0,29.56,SSE,158,0.0,1.1,44,0.00,,,0.00,WUHU216HW,2013-03-29 00:09:00,
2013-03-28 19:14:00,43.2,22.7,29.56,SSE,158,1.3,1.8,44,0.00,,,0.00,WUHU216HW,2013-03-29 00:14:00,
2013-03-28 19:19:00,42.8,22.9,29.56,SSE,158,0.7,1.8,45,0.00,,,0.00,WUHU216HW,2013-03-29 00:19:00,
2013-03-28 19:24:00,42.5,22.5,29.56,SSE,158,0.4,0.7,45,0.00,,,0.00,WUHU216HW,2013-03-29 00:24:00,
2013-03-28 19:29:00,42.1,22.1,29.56,SSE,158,0.7,1.1,45,0.00,,,0.00,WUHU216HW,2013-03-29 00:29:00,
2013-03-28 19:34:00,41.8,21.9,29.56,SE,135,0.4,1.1,45,0.00,,,0.00,WUHU216HW,2013-03-29 00:34:00,
2013-03-28 19:39:00,41.4,21.5,29.56,South,180,1.1,1.1,45,0.00,,,0.00,WUHU216HW,2013-03-29 00:39:00,
2013-03-28 19:44:00,41.0,21.7,29.56,SSE,158,0.9,1.3,46,0.00,,,0.00,WUHU216HW,2013-03-29 00:44:00,
2013-03-28 19:46:00,40.9,21.5,29.56,SSE,158,0.0,0.0,46,0.00,,,0.00,WUHU216HW,2013-03-29 00:46:00,
2013-03-28 19:49:00,40.9,21.5,29.56,SSE,158,0.0,1.3,46,0.00,,,0.00,WUHU216HW,2013-03-29 00:49:00,
2013-03-28 19:54:00,40.9,21.5,29.56,SSE,158,0.0,0.2,46,0.00,,,0.00,WUHU216HW,2013-03-29 00:54:00,
2013-03-28 20:00:00,40.0,21.3,29.56,SE,135,0.0,0.0,47,0.00,,,0.00,WUHU216HW,2013-03-29 01:00:00,
2013-03-28 20:05:00,39.6,20.9,29.56,SE,135,0.0,0.0,47,0.00,,,0.00,WUHU216HW,2013-03-29 01:05:00,
2013-03-28 20:10:00,39.2,20.6,29.56,SE,135,0.0,0.0,47,0.00,,,0.00,WUHU216HW,2013-03-29 01:10:00,
2013-03-28 20:15:00,39.1,20.4,29.56,SE,135,0.0,0.0,47,0.00,,,0.00,WUHU216HW,2013-03-29 01:15:00,
2013-03-28 20:20:00,38.7,20.6,29.56,SE,135,0.0,0.0,48,0.00,,,0.00,WUHU216HW,2013-03-29 01:20:00,
2013-03-28 20:25:00,38.5,20.4,29.56,SE,135,0.0,0.0,48,0.00,,,0.00,WUHU216HW,2013-03-29 01:25:00,
2013-03-28 20:30:00,38.2,20.2,29.56,ESE,113,0.0,0.0,48,0.00,,,0.00,WUHU216HW,2013-03-29 01:30:00,
2013-03-28 20:35:00,38.0,20.5,29.57,ESE,113,0.0,0.0,49,0.00,,,0.00,WUHU216HW,2013-03-29 01:35:00,
2013-03-28 20:40:00,37.8,20.4,29.56,ESE,113,0.0,0.0,49,0.00,,,0.00,WUHU216HW,2013-03-29 01:40:00,
2013-03-28 20:45:00,37.6,20.2,29.56,ESE,113,0.0,0.4,49,0.00,,,0.00,WUHU216HW,2013-03-29 01:45:00,
2013-03-28 20:50:00,37.4,20.5,29.57,SE,135,0.0,0.4,50,0.00,,,0.00,WUHU216HW,2013-03-29 01:50:00,
2013-03-28 20:55:00,37.3,20.3,29.57,SE,135,0.0,0.2,50,0.00,,,0.00,WUHU216HW,2013-03-29 01:55:00,
2013-03-28 21:00:00,37.1,20.6,29.57,SE,135,0.0,0.4,51,0.00,,,0.00,WUHU216HW,2013-03-29 02:00:00,
2013-03-28 21:05:00,36.9,20.4,29.57,ESE,113,0.2,0.4,51,0.00,,,0.00,WUHU216HW,2013-03-29 02:05:00,
2013-03-28 21:10:00,36.4,20.4,29.57,ENE,68,0.2,0.4,52,0.00,,,0.00,WUHU216HW,2013-03-29 02:10:00,
2013-03-28 21:15:00,36.0,20.1,29.57,East,90,0.0,0.4,52,0.00,,,0.00,WUHU216HW,2013-03-29 02:15:00,
2013-03-28 21:20:00,35.6,19.8,29.57,East,90,0.0,0.4,52,0.00,,,0.00,WUHU216HW,2013-03-29 02:20:00,
2013-03-28 21:25:00,35.5,20.0,29.57,ESE,113,0.0,0.0,53,0.00,,,0.00,WUHU216HW,2013-03-29 02:25:00,
2013-03-28 21:30:00,35.3,19.8,29.57,SE,135,0.2,0.4,53,0.00,,,0.00,WUHU216HW,2013-03-29 02:30:00,
2013-03-28 21:35:00,35.1,20.1,29.57,ESE,113,0.0,0.4,54,0.00,,,0.00,WUHU216HW,2013-03-29 02:35:00,
2013-03-28 21:38:00,35.1,20.1,29.57,ESE,113,0.0,0.0,54,0.00,,,0.00,WUHU216HW,2013-03-29 02:38:00,
2013-03-28 21:40:00,35.1,20.1,29.57,ESE,113,0.0,0.0,54,0.00,,,0.00,WUHU216HW,2013-03-29 02:40:00,
2013-03-28 21:45:00,35.1,20.1,29.57,ESE,113,0.0,0.0,54,0.00,,,0.00,WUHU216HW,2013-03-29 02:45:00,
2013-03-28 22:00:00,33.8,19.7,29.58,ESE,113,0.0,0.0,56,0.00,,,0.00,WUHU216HW,2013-03-29 03:00:00,
2013-03-28 22:05:00,33.7,19.5,29.58,SE,135,0.0,0.0,56,0.00,,,0.00,WUHU216HW,2013-03-29 03:05:00,
2013-03-28 22:10:00,33.5,19.4,29.58,ESE,113,0.0,0.0,56,0.00,,,0.00,WUHU216HW,2013-03-29 03:10:00,
2013-03-28 22:15:00,33.5,19.4,29.57,ESE,113,0.0,0.0,56,0.00,,,0.00,WUHU216HW,2013-03-29 03:15:00,
2013-03-28 22:20:00,33.5,19.4,29.57,ESE,113,0.0,0.0,56,0.00,,,0.00,WUHU216HW,2013-03-29 03:20:00,
2013-03-28 22:25:00,33.5,19.8,29.57,ESE,113,0.0,0.0,57,0.00,,,0.00,WUHU216HW,2013-03-29 03:25:00,
2013-03-28 22:30:00,33.3,19.6,29.57,NNE,23,0.0,0.4,57,0.00,,,0.00,WUHU216HW,2013-03-29 03:30:00,
2013-03-28 22:35:00,33.1,19.9,29.58,NNE,23,0.0,0.4,58,0.00,,,0.00,WUHU216HW,2013-03-29 03:35:00,
2013-03-28 22:40:00,32.9,19.7,29.58,NNE,23,0.0,0.0,58,0.00,,,0.00,WUHU216HW,2013-03-29 03:40:00,
2013-03-28 22:44:00,32.9,20.2,29.57,NNE,23,0.0,0.0,59,0.00,,,0.00,WUHU216HW,2013-03-29 03:44:00,
2013-03-28 22:45:00,32.9,20.2,29.57,NNE,23,0.0,0.0,59,0.00,,,0.00,WUHU216HW,2013-03-29 03:45:00,
2013-03-28 22:50:00,32.9,20.2,29.57,NNE,23,0.0,0.0,59,0.00,,,0.00,WUHU216HW,2013-03-29 03:50:00,
2013-03-28 23:00:00,32.8,20.4,29.57,ESE,113,0.0,0.0,60,0.00,,,0.00,WUHU216HW,2013-03-29 04:00:00,
2013-03-28 23:05:00,32.8,20.8,29.57,ENE,68,0.0,0.0,61,0.00,,,0.00,WUHU216HW,2013-03-29 04:05:00,
2013-03-28 23:10:00,32.8,20.8,29.57,ENE,68,0.0,0.0,61,0.00,,,0.00,WUHU216HW,2013-03-29 04:10:00,
2013-03-28 23:15:00,32.8,21.2,29.57,East,90,0.0,0.0,62,0.00,,,0.00,WUHU216HW,2013-03-29 04:15:00,
2013-03-28 23:20:00,32.8,21.2,29.57,East,90,0.0,0.0,62,0.00,,,0.00,WUHU216HW,2013-03-29 04:20:00,
2013-03-28 23:25:00,32.6,21.0,29.57,SE,135,0.4,0.7,62,0.00,,,0.00,WUHU216HW,2013-03-29 04:25:00,
2013-03-28 23:30:00,32.6,21.3,29.57,East,90,0.0,0.7,63,0.00,,,0.00,WUHU216HW,2013-03-29 04:30:00,
2013-03-28 23:35:00,32.6,21.3,29.57,East,90,0.0,0.7,63,0.00,,,0.00,WUHU216HW,2013-03-29 04:35:00,
2013-03-28 23:40:00,32.4,21.3,29.57,East,90,0.0,0.4,63,0.00,,,0.00,WUHU216HW,2013-03-29 04:40:00,
2013-03-28 23:45:00,32.2,21.1,29.57,East,90,0.0,0.4,63,0.00,,,0.00,WUHU216HW,2013-03-29 04:45:00,
2013-03-28 23:50:00,32.0,21.2,29.57,ESE,113,0.4,0.4,64,0.00,,,0.00,WUHU216HW,2013-03-29 04:50:00,
2013-03-28 23:55:00,32.0,21.2,29.57,SE,135,0.0,0.4,64,0.00,,,0.00,WUHU216HW,2013-03-29 04:55:00,